Dewpoint
57 56 56 56 54 54 51 53 53 52 50 48 46 42 39 37 42 44 47 54 54 51 51 56 55 55 53 51 52 48 45 49 46 44 44 45 43 43 43 42 42 42 42
60 57 57 56 56 55 54 54 53 51 50 47 44 38 37 38 37 44 43 46 53 53 51 50 55 56 54 51 50 49 45 46 45 42 43 40 42 42 44 42 39 39 41
58 58 60 60 60 57 56 53 53 51 50 48 43 39 38 37 36 36 43 45 49 54 55 56 53 56 54 52 49 48 47 45 45 42 42 41 41 43 43 44 40 41 42
59 58 59 58 59 57 55 54 53 51 49 47 43 40 40 38 35 35 39 45 45 50 53 54 56 54 53 52 50 48 47 46 46 42 40 40 41 42 42 42 42 42 42
60 58 59 59 58 56 55 54 53 52 50 46 41 41 40 40 36 36 38 40 39 48 49 53 53 52 49 47 48 47 45 44 42 41 39 39 40 40 40 40 41 40 41
59 60 60 59 58 56 55 55 53 52 49 44 40 38 40 40 41 39 37 37 38 41 46 47 48 47 51 49 47 46 43 40 39 37 38 39 39 40 40 40 40 40 40
60 60 60 59 59 56 55 54 53 49 44 42 39 40 41 42 41 40 40 38 36 35 36 40 40 38 44 51 46 40 38 37 34 36 37 38 39 40 40 40 40 40 40
60 60 60 58 58 57 56 54 51 47 45 42 39 44 41 43 44 42 41 39 37 37 36 34 35 35 40 39 38 40 37 36 36 35 36 36 37 38 39 39 39 39 40
60 60 59 59 58 58 56 53 51 47 45 45 44 44 40 40 39 42 42 41 38 38 38 37 36 34 35 37 42 42 43 40 38 37 34 34 36 37 39 38 39 39 39
60 60 60 59 58 58 56 54 53 51 48 44 46 44 42 42 37 35 40 41 41 39 38 38 37 36 35 36 40 42 43 42 39 38 36 35 35 36 37 37 37 37 37
60 60 60 59 58 58 57 55 53 51 50 48 45 45 43 44 43 39 36 37 40 40 39 39 39 37 35 36 39 42 43 41 40 38 37 36 35 35 35 36 36 36 36
60 61 61 59 59 58 57 55 52 51 49 47 45 44 43 42 41 41 40 37 36 35 38 39 40 37 36 36 39 42 43 41 40 38 37 36 34 33 34 35 35 34 35
58 58 59 58 58 56 55 53 50 48 48 47 47 45 45 44 42 41 37 36 35 34 34 36 37 37 36 36 38 42 42 40 39 38 38 35 34 34 33 33 32 32 34
58 58 58 57 55 54 51 50 49 48 48 47 44 45 46 43 42 40 38 37 34 33 32 32 34 34 37 35 40 42 38 39 39 40 38 36 35 33 33 30 29 29 31
56 56 57 55 54 51 49 49 47 47 46 44 44 45 43 42 43 43 42 39 36 31 31 32 31 32 32 36 37 39 36 39 40 40 39 38 35 34 32 29 28 28 28
56 55 55 53 50 48 47 47 46 45 44 44 44 42 44 44 44 44 43 39 36 34 31 32 31 31 31 29 33 36 33 38 40 38 37 37 37 36 33 30 28 28 27
54 54 52 50 48 47 47 45 44 43 44 43 44 43 43 44 44 43 40 37 35 34 31 32 32 31 30 30 31 35 34 34 33 38 37 38 38 36 36 34 31 29 28
53 51 50 49 47 46 45 44 42 41 42 43 43 43 42 41 41 40 39 38 36 36 34 31 31 31 29 30 30 29 30 28 29 33 37 36 36 36 35 34 33 33 31
51 49 49 47 46 46 44 42 40 42 44 43 42 42 42 41 40 41 41 40 39 36 36 35 35 32 32 31 30 28 28 29 25 31 35 35 35 36 36 35 34 34 33
49 48 47 46 46 44 42 42 43 43 43 42 42 41 42 41 41 40 39 38 37 35 35 35 35 34 31 31 30 28 27 28 25 22 26 25 29 31 34 35 35 35 35
47 46 45 43 43 42 42 43 42 42 40 40 40 41 41 41 40 39 39 38 35 34 33 32 32 30 29 29 28 29 28 26 25 24 22 20 20 22 23 26 28 32 31
44 43 42 42 42 41 40 39 40 39 39 39 39 40 40 40 39 38 38 37 36 33 31 30 31 31 31 28 27 29 29 25 25 26 22 19 21 20 21 22 27 30 31
40 40 39 39 39 39 38 38 37 39 39 39 39 38 38 38 35 33 33 33 32 33 34 31 30 31 31 31 30 30 30 28 31 29 21 18 20 19 22 19 28 31 30
39 39 39 39 39 38 38 38 37 38 36 36 36 36 33 31 32 32 31 30 31 31 31 31 31 32 32 33 33 32 32 31 29 25 21 18 20 20 21 23 27 29 28
40 39 40 39 39 38 37 37 36 35 33 31 32 31 30 29 32 30 27 24 22 22 27 32 33 34 34 33 33 33 29 30 28 21 25 21 22 20 21 20 21 26 29
40 40 39 39 36 33 34 34 33 29 27 26 27 28 29 28 29 28 24 22 22 22 21 23 26 29 30 31 34 33 32 27 28 26 27 22 21 20 17 19 20 22 22
Lifted_Index
3 3 3 2 1 1 1 2 2 2 3 4 6 7 8 9 10 10 10 10 9 9 7 6 5 5 6 7 8 9 9 9 9 10 10 10 10 10 11 11 12 12 12
2 2 2 1 0 0 1 1 2 2 3 4 6 7 8 9 9 9 9 10 9 9 8 6 5 5 6 7 8 8 9 9 9 10 10 10 10 10 10 11 11 12 12
0 0 -0 -1 -1 -0 0 1 2 2 3 4 5 7 7 8 8 8 9 9 10 9 8 7 5 5 5 7 7 8 8 9 9 9 10 10 10 10 10 10 11 11 11
-1 -1 -1 -1 -1 -0 0 1 1 2 3 3 5 6 7 7 7 8 8 9 10 9 8 7 6 6 6 7 7 8 8 8 9 9 10 10 10 10 10 11 11 11 11
-1 -1 -1 -1 -1 -0 0 1 1 2 2 3 4 5 7 8 7 7 7 8 10 10 9 8 7 7 7 7 8 8 8 8 9 10 10 10 11 11 11 11 12 12 12
-1 -1 -2 -1 -1 -0 0 1 1 2 2 3 4 5 7 8 7 7 7 8 9 10 10 9 9 9 9 8 8 8 9 9 10 10 11 11 11 11 12 12 12 12 12
-1 -2 -2 -2 -1 -1 -0 0 1 1 2 3 3 4 6 7 7 6 7 8 8 9 10 10 10 10 10 9 9 10 10 10 10 11 11 11 11 12 12 12 12 12 12
-2 -2 -2 -2 -1 -1 -0 0 1 1 2 2 3 4 5 6 6 6 7 8 9 9 9 9 10 10 10 10 10 10 10 10 11 11 11 12 12 12 13 13 13 13 13
-2 -2 -2 -2 -2 -1 -1 -0 0 1 1 2 2 3 5 6 6 6 7 8 8 9 9 9 9 10 10 10 11 11 10 10 10 11 11 12 12 13 13 13 13 13 13
-2 -2 -2 -2 -2 -1 -1 -0 -0 0 1 2 2 4 5 6 6 6 7 7 8 8 8 9 9 10 10 10 10 10 10 10 10 10 11 12 12 13 13 13 13 13 13
-2 -2 -1 -1 -2 -1 -1 -1 -0 0 1 2 3 5 6 6 6 6 6 6 7 7 8 8 9 9 10 10 10 10 10 10 10 11 11 12 13 13 13 13 13 13 13
-2 -1 -1 -1 -1 -1 -1 -1 -0 0 1 2 4 5 6 6 6 6 5 5 6 7 8 8 9 9 9 10 10 10 10 10 10 11 11 12 13 13 13 13 13 12 12
-1 -1 -0 -1 -1 -1 -1 -0 -0 1 1 2 3 5 5 6 6 6 6 6 6 6 7 8 8 9 9 9 10 10 10 10 11 11 11 12 12 12 12 12 12 11 11
-1 -1 -1 -1 -1 -1 -1 -0 0 1 2 3 3 4 5 6 7 7 7 7 6 6 7 7 8 8 9 9 9 10 10 10 11 11 11 11 11 11 11 10 10 10 9
-2 -1 -1 -1 -1 -1 -0 0 1 2 2 3 4 4 5 7 8 8 8 7 7 7 7 8 8 9 9 9 10 10 10 11 11 11 11 10 10 9 9 9 9 8 8
-2 -2 -1 -1 -1 -1 0 1 1 2 3 4 5 5 7 8 8 8 8 8 8 8 8 9 9 9 9 9 10 10 10 11 11 10 10 9 8 8 7 7 7 7 7
-2 -2 -1 -1 -1 -0 0 1 2 2 3 5 6 7 8 9 9 8 8 9 9 9 9 10 10 10 9 10 10 10 10 10 10 9 9 8 7 6 6 6 6 7 7
-2 -2 -1 -1 -0 0 1 1 2 3 4 5 6 7 9 9 9 9 10 10 10 10 10 10 10 9 9 9 9 10 9 9 9 8 7 7 6 6 5 6 6 6 6
-2 -1 -1 -0 0 1 2 2 3 4 5 6 7 8 9 9 10 10 10 10 10 10 10 10 10 9 9 9 9 9 8 8 7 7 6 6 5 5 5 5 5 6 6
-1 -1 -0 0 1 2 3 4 5 6 7 8 9 10 10 10 11 11 11 11 11 10 10 10 10 10 9 9 8 7 7 6 5 5 5 5 5 5 5 5 5 5 5
-0 -0 1 1 2 3 4 6 7 8 8 9 10 11 11 11 12 12 12 12 11 11 11 11 11 10 10 9 7 6 5 5 4 4 4 4 4 4 4 5 5 5 5
0 1 2 3 4 5 7 8 9 9 10 11 11 12 12 12 12 13 13 12 12 12 12 11 11 11 10 9 7 6 4 4 3 3 3 3 3 3 4 5 6 5 5
2 2 3 5 6 8 9 10 10 11 11 12 12 13 13 13 13 13 13 13 13 12 12 12 11 11 10 8 7 6 4 3 3 2 2 2 2 3 4 5 5 5 5
4 4 6 7 8 10 11 11 12 12 13 13 14 14 14 14 15 15 15 15 15 14 14 13 12 11 10 8 7 5 5 4 3 2 2 2 2 2 3 4 4 4 5
6 7 8 10 11 11 12 13 13 14 14 15 15 15 16 16 17 17 17 17 17 16 16 15 13 12 11 9 7 6 5 4 4 2 1 1 2 2 3 4 4 4 5
8 8 10 11 12 12 13 13 14 14 15 15 15 16 17 18 18 19 19 18 17 17 17 16 15 13 11 9 7 6 5 5 4 3 2 2 2 2 3 3 4 4 5